This demonstration page uses our WeatherBlox Daily Observations layout. Learn more.

38.88101, -77.10428

Hourly Observations for June 16, 2017

Temp ( °F °C ) Dew Point ( °F °C ) Humidity (%) Winds ( mph kmh ) Pressure ( in mb ) Visibility ( mi km ) Precip ( " mm )
12:52 am 00:52 Mostly Cloudy 72 22.2 65 18.3 79 79 ESE 9 15 29.94 1014 10 16.0934 0 0
1:52 am 01:52 Mostly Cloudy 71 21.7 65 18.3 81 81 SE 8 13 29.93 1013 10 16.0934 0 0
2:33 am 02:33 Mostly Cloudy 71 21.7 65 18.3 81 81 SE 8 13 29.91 1013 10 16.0934 0 0
2:35 am 02:35 Cloudy 70 21.1 65 18.3 84 84 SE 8 13 29.91 1013 10 16.0934 0 0
2:52 am 02:52 Cloudy 70 21.1 66 18.9 87 87 ESE 7 11 29.91 1013 10 16.0934 0 0
3:52 am 03:52 Cloudy 71 21.7 66 18.9 84 84 ESE 3 6 29.91 1013 10 16.0934 0 0
4:52 am 04:52 Cloudy 71 21.7 67 19.4 87 87 SSE 6 9 29.92 1013 10 16.0934 0 0
4:58 am 04:58 Mostly Cloudy 71 21.7 66 18.9 84 84 SSE 5 7 29.91 1013 10 16.0934 0 0
5:52 am 05:52 Cloudy 71 21.7 66 18.9 84 84 ESE 3 6 29.92 1013 10 16.0934 0 0
6:31 am 06:31 Cloudy 71 21.7 67 19.4 87 87 ESE 5 7 29.91 1013 10 16.0934 0 0
6:52 am 06:52 Cloudy 71 21.7 67 19.4 87 87 ESE 5 7 29.92 1013 10 16.0934 0 0
7:52 am 07:52 Cloudy 72 22.2 67 19.4 84 84 SE 7 11 29.92 1013 10 16.0934 0 0
8:52 am 08:52 Cloudy 74 23.3 67 19.4 79 79 Calm 29.92 1013 10 16.0934 0 0
9:52 am 09:52 Cloudy 75 23.9 68 20 79 79 Calm 29.92 1013 10 16.0934 0 0
10:52 am 10:52 Mostly Cloudy 76 24.4 69 20.6 79 79 Calm 29.92 1013 10 16.0934 0 0
11:52 am 11:52 Cloudy 78 25.6 69 20.6 74 74 NE 3 6 29.93 1013 10 16.0934 0 0
12:36 pm 12:36 Mostly Cloudy 79 26.1 69 20.6 72 72 E 3 6 29.91 1013 10 16.0934 0 0.0254
12:52 pm 12:52 Mostly Cloudy 80 26.7 69 20.6 69 69 ESE 3 6 29.91 1013 10 16.0934 0 0.0254
1:52 pm 13:52 Mostly Cloudy 83 28.3 70 21.1 65 65 S 9 15 29.9 1013 10 16.0934 0 0
2:52 pm 14:52 Mostly Cloudy 83 28.3 69 20.6 63 63 SSE 5 7 29.88 1012 10 16.0934 0 0
3:52 pm 15:52 Mostly Cloudy 83 28.3 69 20.6 63 63 SSE 7 11 29.87 1012 10 16.0934 0 0
4:52 pm 16:52 Mostly Cloudy 84 28.9 70 21.1 63 63 S 5 7 29.86 1011 10 16.0934 0 0
5:52 pm 17:52 Mostly Cloudy with Nearby Thunderstorms 83 28.3 70 21.1 65 65 SSW 3 6 29.85 1011 10 16.0934 0 0
6:03 pm 18:03 Mostly Cloudy with Thunderstorms 83 28.3 70 21.1 65 65 SSW 5 7 29.85 1011 10 16.0934 0 0
6:52 pm 18:52 Cloudy with Thunderstorms 83 28.3 71 21.7 67 67 WNW 6 9 29.87 1012 10 16.0934 0 0
7:06 pm 19:06 Cloudy with Nearby Thunderstorms 83 28.3 71 21.7 67 67 VRB 6 9 29.88 1012 10 16.0934 0 0
7:27 pm 19:27 Cloudy with Nearby Thunderstorms 82 27.8 71 21.7 69 69 WNW 6 9 29.88 1012 10 16.0934 0 0
7:44 pm 19:44 Cloudy 82 27.8 71 21.7 69 69 N 7 11 29.88 1012 10 16.0934 0 0
7:52 pm 19:52 Cloudy 82 27.8 71 21.7 69 69 N 8 13 29.88 1012 10 16.0934 0 0
8:08 pm 20:08 Cloudy 81 27.2 72 22.2 74 74 ENE 10 17 29.88 1012 10 16.0934 0 0
8:15 pm 20:15 Cloudy 81 27.2 73 22.8 77 77 ENE 12 19 29.88 1012 10 16.0934 0 0
8:52 pm 20:52 Cloudy with Light Rain 78 25.6 70 21.1 76 76 E 8 13 29.88 1012 10 16.0934 0 0.0254
9:22 pm 21:22 Mostly Cloudy with Thunderstorms 76 24.4 70 21.1 82 82 SSE 6 9 29.91 1013 8 12.87472 0.01 0.254
9:25 pm 21:25 Mostly Cloudy with Thunderstorms 75 23.9 71 21.7 88 88 SSE 8 13 29.91 1013 6 9.65604 0.02 0.508
9:35 pm 21:35 Cloudy with Heavy Thunderstorms 74 23.3 72 22.2 94 94 SSW 7 11 29.91 1013 3 4.82802 0.09 2.286
9:40 pm 21:40 Cloudy with Heavy Thunderstorms 74 23.3 72 22.2 94 94 SSW 7 11 29.91 1013 2.5 4.02335 0.13 3.302
9:52 pm 21:52 Cloudy with Heavy Thunderstorms 74 23.3 73 22.8 97 97 S 7 11 29.91 1013 2.5 4.02335 0.23 5.842
9:58 pm 21:58 Cloudy with Heavy Thunderstorms 74 23.3 73 22.8 97 97 SSW 7 11 29.91 1013 4 6.43736 0.04 1.016
10:14 pm 22:14 Cloudy with Light Rain 74 23.3 73 22.8 97 97 SW 5 7 29.91 1013 6 9.65604 0.12 3.048
10:31 pm 22:31 Cloudy with Light Rain 75 23.9 73 22.8 94 94 SW 6 9 29.91 1013 10 16.0934 0.13 3.302
10:52 pm 22:52 Cloudy with Light Rain 75 23.9 73 22.8 94 94 Calm 29.9 1013 10 16.0934 0.13 3.302
11:00 pm 23:00 Cloudy with Light Rain 75 23.9 73 22.8 94 94 Calm 29.91 1013 10 16.0934 0 0.0254
11:23 pm 23:23 Mostly Cloudy 75 23.9 72 22.2 90 90 SW 7 11 29.91 1013 10 16.0934 0 0.0254
11:52 pm 23:52 Mostly Cloudy 74 23.3 72 22.2 94 94 SW 5 7 29.91 1013 10 16.0934 0 0.0254

Powered by AerisWeather